Flag for Germany Weather past 2 weeks in Marburg, Hesse, Germany

Now
58 °F

Sunny.


Feels Like: 57 °F
Forecast: 46 / 67 °F
Wind: 9 mph from Northeast

Location: Giessen


UV Index: 3 (Moderate)

Visibility: 9 mi


Pressure: 29.88 "Hg

Humidity: 63%

Dew point: 46 °F

Location of MarburgLocation

Historic Weather in Marburg

°F

Marburg temperature yesterday

Maximum temperature yesterday: 53 °F (at 3:00 PM)
Minimum temperature yesterday: 44 °F (at 9:00 AM)
Average temperature yesterday: 49 °F

Past Weeks' High & Low Weather Summary

 TemperatureHumidityPressure
High68 °F (Apr 7, 5:00 PM)98% (Apr 6, 7:00 AM)30.46 "Hg (Apr 6, 7:00 AM)
Low30 °F (Apr 16, 7:00 AM)31% (Apr 17, 6:00 PM)29.75 "Hg (Apr 4, 8:00 PM)
Average50 °F71%30.09 "Hg
* Reported Apr 4 8:00 PM — Apr 19 8:00 PM, Marburg, Weather by CustomWeather, © 2014

Note: Actual official high and low records may vary slightly from our data, if they occured in-between our weather recording intervals... More about our weather records

Advertising

Historic Weather Conditions — Data for Previous 24 hours

 ConditionsComfort  
Time TempWeatherWind HumidityBarometerVisibility
8:00 PM
Apr 19
58 °FSunny.9 mph63%29.88 "Hg9 mi
7:00 PM61 °FSunny.12 mph57%29.86 "Hg14 mi
6:00 PM60 °FScattered clouds.9 mph57%29.87 "HgN/A
5:00 PM61 °FScattered clouds.10 mph54%29.89 "HgN/A
4:00 PM58 °FOvercast.9 mph56%29.91 "Hg14 mi
3:00 PM60 °FPartly sunny.13 mph53%29.93 "Hg7 mi
2:00 PM58 °FSunny.10 mph54%29.96 "Hg8 mi
1:00 PM54 °FSunny.9 mph60%29.99 "Hg14 mi
12:00 PM51 °FScattered clouds.8 mph64%30.01 "Hg12 mi
11:00 AM47 °FPartly sunny.8 mph72%30.04 "Hg18 mi
10:00 AM44 °FOvercast.8 mph80%30.05 "Hg16 mi
9:00 AM41 °FLow clouds.6 mph88%30.06 "Hg12 mi
8:00 AM39 °FLow clouds.6 mph93%30.04 "Hg6 mi
7:00 AM35 °FPartly sunny.3 mph95%30.03 "Hg13 mi
6:00 AM36 °FOvercast.1 mph94%30.01 "Hg12 mi
5:00 AM37 °FClear.1 mph89%30.00 "Hg17 mi
4:00 AM38 °FClear.3 mph92%30.01 "Hg22 mi
3:00 AM38 °FClear.1 mph87%29.99 "Hg28 mi
2:00 AM40 °FPassing clouds.2 mph82%29.97 "Hg37 mi
1:00 AM42 °FOvercast.1 mph76%29.98 "Hg43 mi
12:00 AM45 °FOvercast.1 mph70%29.97 "Hg31 mi
11:00 PM
Apr 18
45 °FOvercast.3 mph67%29.97 "Hg43 mi
10:00 PM46 °FOvercast.3 mph63%29.96 "Hg43 mi
9:00 PM48 °FOvercast.3 mph55%29.94 "Hg43 mi
8:00 PM50 °FScattered clouds.6 mph48%29.92 "Hg43 mi
Weather by CustomWeather, © 2014

See weather overview